RH
42 44 44 41 50 69 95 94 100 98 84 39 60 75 76 80 100 100 100 100 91 86 81 86 74 78 76 78 86 93 90 80 88 90 86 91 90 95
49 52 52 51 51 61 80 86 90 100 100 81 67 55 36 39 83 99 100 100 99 96 87 92 92 82 76 77 82 93 94 83 90 93 87 86 82 90
51 59 57 59 59 60 68 79 93 94 99 71 56 59 55 29 18 60 94 99 100 100 94 87 92 86 79 76 76 86 96 84 88 93 86 86 79 94
55 63 64 72 73 72 74 84 96 95 99 100 59 49 50 39 28 25 56 62 98 99 100 93 87 88 78 77 73 79 90 94 88 89 87 90 85 89
64 74 76 87 86 83 83 88 93 95 93 100 100 80 66 59 48 32 21 40 71 92 99 99 94 90 86 81 77 75 83 89 94 89 81 81 82 87
82 89 92 97 98 94 92 88 90 92 92 97 99 88 65 56 57 58 34 53 48 62 86 100 91 88 93 85 79 74 77 82 98 90 84 67 81 88
90 90 93 98 98 97 98 96 99 98 96 97 100 100 84 87 98 96 81 61 26 53 69 91 100 96 100 97 83 78 77 84 85 97 87 75 72 76
100 95 87 95 87 99 98 99 99 97 96 86 96 98 94 79 88 99 97 92 58 25 97 91 99 100 98 88 91 86 78 86 82 85 98 90 84 76
92 90 87 84 96 87 90 97 94 95 96 96 97 97 98 94 96 99 99 96 97 82 83 48 94 98 99 95 93 91 89 87 92 90 89 98 94 88
85 86 87 91 90 100 96 94 89 82 74 76 77 74 78 78 73 78 85 88 88 95 98 76 55 80 95 100 90 87 89 86 87 93 91 91 100 96
83 88 98 97 99 98 96 96 94 89 83 100 99 96 98 98 97 99 95 100 97 92 89 84 36 55 72 81 100 82 85 82 78 83 90 91 87 100
88 80 97 99 97 98 96 96 94 94 97 97 98 94 84 82 89 95 95 100 100 100 93 72 59 56 72 65 93 100 76 76 76 78 75 90 91 98
97 96 81 92 95 96 98 96 95 90 88 95 92 91 96 98 94 79 77 85 98 98 99 97 77 92 100 99 91 100 96 92 74 81 83 89 98 91
94 85 90 100 97 96 98 96 99 98 97 97 98 98 99 99 98 99 83 86 76 73 85 95 100 99 71 74 95 86 100 88 91 77 83 86 90 94
97 96 94 95 98 100 95 96 93 95 95 100 98 93 86 91 100 98 95 96 95 79 95 95 95 100 100 95 68 64 93 100 97 96 80 84 88 90
88 81 97 96 85 91 93 80 82 94 94 89 85 76 81 98 100 98 99 98 100 96 98 91 87 100 94 93 100 89 83 97 100 99 77 84 88 84
99 93 79 80 81 80 84 88 93 97 100 100 98 95 100 100 100 100 98 93 100 100 100 100 98 100 93 90 100 100 81 95 96 100 97 97 97 93
96 93 89 83 89 93 98 97 100 99 97 100 100 100 100 100 100 100 98 99 98 98 100 97 98 100 100 92 89 75 99 98 99 100 99 100 99 99
95 88 88 91 90 93 95 97 99 95 99 100 100 100 100 100 100 98 99 98 97 100 100 98 96 98 99 94 97 84 72 72 98 100 100 100 91 86
87 94 94 92 93 96 96 98 98 95 93 95 98 94 97 100 99 98 99 97 98 100 98 95 95 98 98 90 81 98 93 59 71 99 100 100 98 100
91 90 93 94 96 98 97 97 97 95 97 100 96 98 98 99 98 98 98 98 97 98 95 92 95 93 84 95 99 96 99 93 90 90 96 100 100 100
90 94 93 92 94 96 96 95 96 93 98 100 100 98 98 100 98 98 98 98 98 98 97 94 96 100 100 100 98 89 100 97 99 100 100 100 98 98
95 96 95 94 95 94 94 96 99 100 100 100 98 98 99 100 98 98 99 99 100 99 97 96 94 95 96 98 97 96 99 99 99 100 97 98 100 100
Wind_Speed
31 31 30 31 31 28 27 27 28 38 47 47 35 24 22 36 26 31 35 40 46 44 51 57 55 52 51 50 50 48 44 44 43 43 40 39 39 37
32 31 32 32 33 33 31 32 32 32 44 43 48 50 47 41 43 34 40 30 43 48 45 55 57 56 53 52 52 52 51 46 44 47 43 43 41 40
33 33 34 32 33 34 34 32 33 35 41 52 53 52 52 52 51 46 41 36 35 42 53 49 57 59 57 54 53 54 55 47 48 49 46 45 43 41
34 33 34 32 32 33 34 34 34 36 39 43 52 55 55 54 54 53 53 51 40 25 47 50 50 55 60 58 55 56 56 53 51 50 50 48 45 44
33 32 33 32 35 34 35 36 35 36 37 39 40 46 50 49 53 55 55 56 53 42 34 49 50 51 54 60 59 57 57 58 56 53 51 50 48 46
33 34 35 34 36 37 36 37 35 36 38 42 41 42 47 47 47 48 54 43 53 53 40 41 52 49 51 56 60 61 61 60 60 55 52 52 51 51
35 35 37 37 34 36 38 41 42 43 44 43 42 36 42 42 36 34 41 46 52 47 46 40 44 53 53 56 59 62 64 62 62 59 57 55 54 53
39 40 40 37 37 36 36 37 38 40 44 46 46 41 40 46 42 36 38 40 47 48 27 36 30 32 50 54 60 62 64 65 64 63 62 59 57 54
38 40 40 38 33 35 34 35 37 40 42 43 46 44 35 35 39 38 36 40 46 46 41 55 35 37 29 54 57 58 64 64 67 66 64 62 60 58
34 33 34 36 34 33 35 38 39 39 39 40 44 49 50 50 52 50 48 48 53 48 35 49 53 48 35 27 58 55 57 63 66 67 68 67 66 62
32 35 35 36 35 32 35 40 43 45 44 40 41 43 43 40 39 41 45 41 48 47 36 38 58 55 57 45 32 59 62 58 61 68 70 70 69 67
36 37 34 33 33 33 36 39 43 43 38 38 40 43 44 45 43 44 48 49 48 47 43 43 49 44 45 47 35 53 61 61 55 57 65 72 70 69
38 39 39 35 35 36 36 39 44 43 45 44 48 50 48 46 45 43 44 49 49 51 46 40 42 30 23 32 45 38 62 64 63 59 56 65 68 70
36 38 40 37 37 40 42 44 43 42 46 46 44 45 45 44 44 43 46 47 49 54 49 42 44 39 45 50 50 43 38 64 57 61 54 56 59 64
36 36 36 39 40 39 41 41 40 43 45 44 46 50 51 48 44 40 44 47 50 56 49 48 51 45 42 47 52 65 45 32 56 59 60 55 53 55
37 39 39 35 40 40 39 39 37 35 37 41 45 49 49 46 45 44 46 49 48 56 50 51 54 47 50 50 44 54 66 53 38 57 55 58 61 60
39 38 40 39 39 38 36 35 34 34 35 38 41 44 44 42 44 42 43 48 48 52 48 46 48 48 51 51 45 47 61 61 48 50 54 57 55 58
33 33 33 35 37 37 37 38 36 36 37 38 41 42 43 42 43 42 42 44 48 53 49 47 43 40 42 48 50 56 48 53 58 43 54 55 51 52
30 33 36 37 38 39 39 40 41 40 40 40 42 44 44 45 43 44 44 44 49 52 52 47 44 43 41 41 42 48 57 60 55 48 53 51 48 51
31 37 39 39 40 41 42 43 43 43 44 44 45 47 44 45 48 49 48 48 50 51 51 49 48 48 46 50 42 42 48 55 52 47 48 51 49 47
35 38 40 40 41 43 44 45 45 47 46 46 50 46 47 50 52 51 50 50 51 52 52 51 51 50 54 47 42 40 39 40 48 55 55 47 48 46
36 40 42 41 43 45 48 49 52 53 52 53 49 49 52 52 53 51 51 53 55 56 54 52 48 46 49 47 46 45 39 47 49 44 46 53 50 48
39 41 43 43 45 45 48 51 55 54 55 56 51 56 54 54 53 52 53 54 55 54 54 50 48 47 51 50 48 43 39 44 52 51 52 54 52 52
Wind_Direction
305 303 298 294 293 290 283 278 276 288 290 283 282 272 244 246 249 241 249 248 256 248 239 238 240 239 240 235 232 228 227 229 227 228 228 224 219 217
304 301 298 295 291 287 280 276 272 273 279 281 285 284 276 260 258 255 241 251 242 251 245 238 237 239 240 236 233 230 228 228 227 227 228 226 224 219
300 299 296 295 292 289 287 282 274 271 273 280 281 285 283 276 269 266 256 248 252 248 251 240 237 238 239 239 235 231 232 231 226 227 226 226 225 223
298 297 294 295 292 289 287 283 275 273 273 277 280 282 284 281 277 273 265 265 256 253 246 242 241 238 237 237 234 234 230 231 227 227 225 226 226 225
296 295 295 297 294 292 290 286 281 278 278 275 279 281 283 285 284 279 274 266 261 264 250 250 242 240 238 236 233 233 232 230 229 227 226 225 223 224
299 299 298 296 294 293 290 286 285 283 281 279 279 284 286 287 288 289 284 287 271 268 263 255 246 244 237 236 232 232 233 231 229 227 228 228 225 224
296 296 296 294 286 283 282 282 282 282 281 281 273 274 285 288 287 291 286 287 269 271 271 268 249 246 241 236 234 231 231 231 230 228 227 229 227 228
293 290 290 286 282 279 277 274 272 273 273 273 273 273 273 279 284 284 290 291 290 264 275 267 251 253 255 240 233 231 230 230 230 229 230 228 229 228
291 292 292 290 288 287 285 277 272 268 266 269 273 273 275 274 277 280 280 281 280 280 283 267 255 248 246 246 239 233 233 230 231 231 231 231 229 231
292 294 296 297 297 290 288 285 283 282 277 272 267 268 269 269 269 273 276 276 275 275 279 278 258 260 259 248 246 240 234 233 229 230 231 230 231 232
297 300 299 296 293 288 284 281 281 280 281 273 271 272 270 266 265 272 271 269 272 276 275 274 269 273 268 261 251 244 238 236 234 232 230 231 230 232
301 301 298 292 290 288 287 285 283 282 284 280 277 274 272 269 265 260 264 263 265 273 274 272 267 275 284 267 273 234 238 234 232 236 234 231 231 232
300 298 299 296 292 289 286 283 281 284 282 277 276 276 274 270 269 269 259 255 258 261 263 262 260 260 261 272 263 246 235 234 235 235 234 231 230 232
297 300 303 299 294 291 288 285 284 283 282 279 274 271 268 267 265 261 265 263 263 262 263 257 260 261 263 267 266 259 238 234 232 227 229 231 231 233
301 300 296 297 297 294 289 288 286 281 278 276 272 271 270 267 266 263 259 260 262 265 260 258 256 258 257 260 262 258 264 242 233 233 228 229 229 227
307 308 308 301 299 297 295 294 292 284 277 275 273 272 271 268 265 261 256 258 257 260 257 256 255 251 254 251 255 263 254 261 232 232 230 235 232 230
308 307 304 308 310 309 307 302 297 292 281 276 274 274 272 268 264 261 257 256 252 255 254 252 253 251 253 251 252 255 260 259 260 239 229 230 235 234
310 310 314 316 315 315 310 306 300 294 291 283 278 275 271 267 264 261 255 252 250 251 251 248 248 247 249 253 248 246 249 253 256 252 226 224 228 231
320 327 322 322 321 319 315 309 301 300 298 283 276 274 270 266 265 262 258 251 249 249 247 245 242 238 236 244 248 245 241 244 247 254 239 230 236 240
325 328 328 325 323 321 317 311 307 306 302 295 286 281 276 265 266 262 254 249 247 245 245 242 238 235 232 233 234 240 238 244 240 242 244 232 232 235
329 329 330 326 323 323 321 317 312 306 298 289 285 277 274 272 266 260 253 247 246 243 242 240 236 235 239 241 245 248 242 234 238 241 238 233 231 236
330 329 330 326 325 323 321 320 312 307 298 288 277 275 277 270 264 258 251 246 241 239 238 237 235 231 231 229 235 233 241 232 228 232 240 241 238 227
331 329 331 331 331 329 324 319 309 298 292 288 278 280 276 270 263 256 253 245 237 235 233 232 229 227 229 228 230 229 235 229 222 222 234 240 238 236